Volver al catálogo

HORIZONS 3E

ActivoComunicacionesGEO
NORAD 43633·PAYLOAD· XX

Lanzado Sep 25, 2018 desde Guiana Space Centre

Loading…

TLE

ActualizadoSource: CelesTrak SupGP

Época: Sep 14, 2026, 00:00 UTC

1 43633C 18074B   26257.00000000  .00000065  00000+0  00000+0 0  2577
2 43633   0.0065 199.3425 0000712 325.1864 357.4628  1.00271728    18

Sigue HORIZONS 3E en tiempo real con AllMySat

Download on the App Store